Wind_Speed
17 13 11 13 7 4 2 6 7 8 6 3 4 5 5 4 4 4 4 4 6 8 7 7 12 12 11 15 19 19 16 19 24 22 20 22 17 19 19 24 26 33 45
14 17 10 8 6 6 3 8 9 6 8 7 7 6 5 3 3 3 4 5 7 7 7 9 11 13 13 16 16 23 22 25 25 27 24 22 23 20 24 42 45 38 36
17 14 11 7 6 6 6 12 13 10 9 7 5 4 1 4 3 4 4 5 4 8 5 7 9 9 11 14 18 28 24 25 26 30 29 31 29 37 33 32 41 41 39
17 12 9 8 5 4 10 12 18 13 9 7 5 5 5 5 4 4 4 4 4 4 5 5 7 7 10 16 23 24 26 25 27 32 32 35 40 34 35 43 39 37 37
19 12 9 9 6 8 15 16 14 11 10 8 7 7 7 6 7 7 6 3 2 4 8 8 9 10 13 14 17 17 20 29 33 35 41 41 42 42 44 44 42 40 32
17 11 11 8 9 8 15 17 13 12 11 9 7 8 3 4 5 7 7 5 1 4 9 9 10 13 14 11 12 14 16 28 34 41 44 45 45 47 46 45 39 35 30
17 12 9 8 10 11 17 16 14 12 12 9 6 4 4 4 8 8 7 5 3 5 8 8 10 14 13 12 14 16 16 23 33 39 47 48 48 44 41 37 33 31 30
17 12 11 11 10 11 16 17 15 14 12 7 4 5 6 8 9 8 9 7 8 8 7 7 11 15 16 15 15 21 31 25 29 33 36 45 44 40 33 33 32 25 27
18 13 12 14 11 11 12 15 16 14 12 9 6 9 10 9 9 8 7 9 10 9 9 9 14 16 15 15 19 29 33 35 37 40 41 42 36 29 29 29 27 28 29
19 14 14 12 11 11 11 12 14 13 13 11 10 10 10 8 7 6 6 9 10 12 11 10 13 14 13 17 22 26 33 32 31 41 39 38 31 26 21 19 24 28 26
20 16 17 12 11 9 12 12 13 13 14 15 12 12 10 8 7 8 7 7 7 11 14 14 14 13 13 15 21 26 27 31 34 34 30 28 26 23 21 22 20 17 19
22 20 19 14 14 10 12 12 10 12 15 16 15 11 12 10 9 9 8 5 4 8 14 16 19 18 16 17 26 27 29 31 30 29 30 28 26 27 24 19 17 13 12
25 22 18 16 13 10 14 12 10 11 15 18 16 15 14 13 12 10 8 5 7 15 17 21 22 20 21 19 24 29 29 29 30 28 31 28 26 24 20 18 16 13 11
24 24 22 18 14 12 13 11 10 11 12 14 16 16 17 15 16 15 13 9 13 18 19 22 22 20 20 21 24 28 26 26 32 33 29 25 26 25 19 17 17 15 12
25 25 25 20 14 12 14 13 11 8 5 5 10 13 16 19 20 18 17 15 20 20 22 23 24 24 22 24 30 32 26 27 32 31 27 26 25 24 20 18 17 16 16
29 28 26 22 18 13 17 15 13 11 9 4 3 4 8 13 20 21 18 17 18 20 18 21 24 27 30 31 31 33 30 28 29 32 27 24 23 24 23 21 20 21 20
32 29 27 24 20 16 21 18 14 11 10 10 5 6 10 16 19 20 19 17 19 16 14 16 20 26 28 28 30 32 32 31 28 27 28 26 26 25 25 24 23 22 23
31 28 28 25 20 18 17 20 16 15 12 15 13 11 10 13 19 22 20 19 21 20 18 16 17 21 25 26 27 26 29 28 28 26 25 25 25 26 25 26 26 27 27
32 33 29 26 22 18 18 20 19 16 14 14 17 15 13 14 18 23 21 22 23 22 22 21 19 20 22 24 25 25 25 27 26 26 26 26 25 25 25 25 26 27 27
33 33 31 28 24 20 22 22 23 22 20 17 19 19 18 18 22 24 26 26 26 25 24 24 23 22 23 23 24 24 26 27 26 25 27 28 28 28 28 27 27 27 27
34 33 32 31 28 23 25 27 24 25 24 24 24 22 23 23 23 24 25 26 27 28 27 28 28 27 27 27 26 27 29 29 29 29 30 29 30 31 31 32 31 32 32
38 36 35 33 30 27 28 30 29 27 26 26 25 25 26 29 28 27 27 28 29 30 30 30 32 31 31 31 31 32 33 34 34 35 36 34 34 35 38 37 36 37 37
38 37 37 36 33 30 29 31 32 33 32 28 28 28 30 31 30 32 32 31 30 30 31 33 34 35 36 36 36 36 36 38 37 34 34 35 36 38 39 40 41 41 41
33 38 38 37 37 35 33 32 34 35 34 35 32 32 30 32 32 30 29 28 29 32 33 34 35 36 37 40 42 43 42 39 36 39 39 37 38 39 40 41 41 41 41
10 23 34 39 39 36 33 35 33 34 35 37 38 38 35 33 34 34 32 31 30 30 30 31 35 37 38 38 39 40 43 45 43 40 36 36 38 39 39 41 43 43 43
9 11 6 27 32 36 36 34 37 38 37 36 39 39 38 37 35 34 34 33 34 33 32 32 32 32 32 33 36 40 42 42 41 40 40 40 42 43 44 45 44 44 43
Wind_Direction
171 159 148 160 165 172 190 194 193 178 166 154 158 158 157 164 207 244 234 206 213 216 218 206 200 211 207 188 180 192 197 195 168 166 178 175 172 166 173 180 177 177 168
158 151 154 171 181 198 202 204 186 152 143 127 132 140 156 160 213 228 217 210 213 215 211 199 202 213 197 190 208 203 192 187 184 166 174 175 166 169 169 160 151 146 141
155 158 167 179 214 227 241 185 183 161 162 156 161 177 236 248 265 198 189 207 204 192 190 210 212 198 203 196 173 169 178 182 183 166 170 171 164 158 144 145 146 145 142
157 164 167 198 221 231 176 174 171 174 180 184 197 221 276 266 222 196 184 153 160 190 185 166 170 164 155 163 169 175 178 175 175 170 169 166 162 161 160 152 147 145 144
169 172 189 202 189 173 169 155 162 177 186 193 227 256 283 241 192 162 150 156 164 183 172 166 156 146 142 138 146 157 163 171 167 165 153 154 157 158 157 158 151 150 153
175 179 190 201 176 176 177 173 175 184 194 201 236 277 226 206 177 151 170 189 197 146 174 172 175 173 179 183 177 171 180 178 172 165 162 157 158 160 157 154 153 158 147
179 182 188 168 167 166 175 177 181 187 197 211 251 213 186 182 133 142 148 140 126 150 151 152 159 173 180 170 168 178 190 189 191 185 166 164 167 161 155 159 161 162 166
182 180 182 165 168 164 178 185 184 189 197 224 214 176 161 138 135 146 146 141 129 134 146 146 149 151 156 159 168 180 172 177 182 183 180 172 159 157 162 165 167 167 162
176 183 181 180 174 165 174 190 196 201 210 210 201 161 159 145 134 141 149 152 141 129 133 140 145 143 152 155 163 163 163 162 169 169 156 155 158 157 167 171 167 165 163
179 179 172 182 180 170 174 177 188 195 201 192 175 159 160 153 141 141 145 161 149 136 135 135 144 139 145 148 160 157 160 166 167 165 158 164 165 168 170 176 169 172 171
187 175 180 180 166 168 175 182 187 190 192 190 184 179 170 171 156 147 138 153 160 144 145 143 139 145 144 142 152 156 152 155 159 161 159 161 165 171 176 172 177 178 173
191 184 180 180 177 179 180 176 184 191 190 195 191 192 184 180 167 154 142 151 184 170 150 146 137 138 148 149 160 157 151 157 158 162 166 166 166 163 165 170 172 170 184
191 186 180 180 180 181 182 175 174 173 180 195 197 196 191 183 174 163 165 160 145 157 140 136 133 144 148 155 160 165 154 162 164 165 166 166 165 162 166 167 169 172 181
188 186 184 176 175 186 185 187 172 167 174 188 192 196 197 194 184 172 171 156 149 153 142 142 149 145 156 158 162 171 177 175 171 169 169 171 173 178 177 180 181 180 199
190 190 187 181 176 175 182 188 182 167 162 172 196 194 194 193 183 177 174 161 155 150 144 143 150 156 161 162 167 175 178 177 176 175 178 181 186 189 193 197 204 212 224
191 191 191 186 182 183 182 184 188 201 206 183 247 206 183 190 179 179 174 165 158 158 157 154 156 163 165 170 176 182 189 186 191 194 192 193 197 200 203 211 218 225 234
199 198 195 192 191 192 190 189 188 201 228 210 189 162 169 171 174 172 175 174 183 174 172 166 170 173 173 178 181 183 184 188 187 190 200 209 211 212 216 223 227 232 240
206 209 202 202 205 203 200 199 206 211 199 183 188 170 161 173 177 175 176 180 185 193 195 187 181 182 184 183 183 179 182 186 192 196 204 212 216 220 224 229 233 240 247
210 211 213 213 213 215 205 206 213 215 212 201 188 185 176 175 183 190 194 199 194 191 192 195 193 191 189 188 188 187 190 195 200 207 213 216 218 223 232 240 246 252 259
210 215 217 216 214 214 213 213 216 221 226 218 205 199 195 191 195 200 206 209 208 203 198 196 196 196 199 201 202 203 205 207 211 219 225 230 232 236 243 250 255 258 262
215 213 219 217 216 217 217 221 222 222 225 227 230 227 223 220 215 215 215 214 214 212 211 209 207 204 204 206 208 214 219 220 222 227 231 235 241 243 246 248 253 257 263
223 220 216 218 219 219 219 225 226 227 230 232 233 233 233 233 235 234 231 228 224 222 221 220 218 218 218 219 226 232 236 237 236 239 240 242 244 248 250 254 258 261 263
224 226 223 222 224 224 224 225 230 232 234 236 237 239 234 233 238 240 241 240 238 236 233 230 230 230 228 229 230 233 239 241 239 243 248 250 252 252 253 255 259 262 265
224 227 230 230 229 228 227 230 231 237 238 238 240 240 242 244 245 247 246 245 245 245 243 242 240 239 238 237 235 236 239 243 247 247 250 254 255 256 257 259 261 263 266
194 224 233 233 233 234 234 234 238 238 241 242 244 247 248 246 248 251 253 252 252 250 249 248 249 249 249 247 245 244 243 241 243 248 251 253 256 259 260 262 263 265 264
105 83 202 232 239 242 243 243 241 239 241 244 246 248 253 255 255 254 257 258 257 257 259 258 256 257 258 259 258 254 250 247 245 245 248 252 257 259 261 262 264 265 266
Height
1418 1422 1425 1427 1430 1432 1433 1435 1436 1438 1440 1440 1441 1442 1442 1442 1443 1443 1444 1445 1445 1445 1445 1446 1446 1447 1450 1452 1455 1458 1460 1463 1467 1474 1478 1482 1485 1488 1491 1495 1498 1502 1506
1419 1422 1425 1427 1429 1431 1433 1435 1437 1439 1440 1441 1442 1442 1442 1443 1443 1443 1443 1444 1443 1443 1444 1444 1445 1445 1447 1449 1452 1454 1459 1463 1467 1472 1478 1482 1485 1489 1491 1494 1498 1505 1511
1419 1422 1425 1427 1429 1430 1432 1434 1437 1439 1441 1442 1442 1442 1443 1443 1443 1443 1443 1443 1443 1443 1443 1442 1443 1443 1445 1446 1448 1453 1459 1464 1468 1472 1478 1482 1487 1491 1496 1502 1505 1509 1515
1419 1422 1425 1427 1428 1429 1431 1433 1436 1439 1441 1442 1442 1443 1443 1442 1442 1442 1443 1444 1443 1443 1443 1443 1443 1443 1444 1446 1450 1453 1458 1463 1466 1472 1479 1484 1488 1494 1499 1502 1509 1515 1520
1419 1422 1424 1426 1427 1429 1431 1434 1437 1439 1441 1442 1442 1442 1442 1441 1441 1442 1443 1443 1442 1442 1442 1443 1444 1445 1447 1450 1451 1454 1458 1463 1467 1473 1479 1483 1489 1495 1499 1505 1510 1517 1524
1419 1421 1423 1425 1426 1428 1431 1434 1437 1439 1440 1442 1442 1442 1442 1441 1441 1442 1443 1443 1443 1443 1442 1443 1444 1447 1448 1450 1453 1456 1461 1464 1468 1472 1478 1483 1491 1496 1501 1508 1513 1520 1525
1418 1422 1423 1424 1426 1428 1430 1433 1436 1439 1440 1442 1442 1442 1442 1442 1441 1442 1443 1444 1444 1444 1445 1446 1446 1447 1449 1451 1454 1457 1461 1465 1469 1471 1478 1484 1491 1498 1504 1511 1517 1521 1524
1418 1421 1423 1425 1427 1428 1430 1433 1436 1438 1441 1442 1442 1442 1443 1443 1443 1444 1445 1446 1446 1446 1447 1448 1448 1449 1451 1452 1455 1458 1462 1468 1472 1477 1481 1487 1498 1503 1510 1514 1518 1524 1530
1417 1420 1422 1425 1427 1428 1430 1433 1435 1438 1440 1441 1442 1443 1444 1445 1445 1446 1446 1447 1448 1448 1449 1450 1450 1452 1454 1456 1457 1461 1466 1471 1476 1481 1489 1496 1502 1507 1512 1516 1522 1526 1530
1416 1419 1422 1424 1426 1428 1431 1433 1435 1437 1439 1441 1443 1445 1446 1446 1447 1447 1448 1449 1449 1450 1451 1452 1453 1455 1457 1460 1462 1467 1472 1477 1483 1489 1496 1503 1508 1513 1517 1521 1524 1527 1531
1415 1418 1421 1424 1426 1428 1430 1432 1434 1436 1439 1441 1443 1445 1447 1448 1448 1449 1450 1451 1451 1452 1453 1454 1456 1458 1461 1464 1468 1473 1476 1481 1488 1494 1500 1506 1511 1515 1519 1524 1528 1532 1534
1414 1418 1421 1424 1426 1428 1430 1432 1434 1435 1438 1440 1443 1445 1447 1448 1449 1450 1452 1453 1453 1453 1454 1456 1458 1462 1465 1468 1473 1478 1483 1487 1493 1498 1503 1507 1512 1516 1521 1526 1530 1534 1538
1413 1417 1421 1424 1426 1428 1430 1432 1434 1435 1437 1439 1442 1444 1446 1448 1450 1451 1453 1454 1454 1456 1457 1459 1462 1465 1469 1473 1478 1484 1488 1492 1496 1501 1505 1509 1514 1519 1523 1527 1530 1534 1537
1412 1416 1420 1423 1426 1428 1431 1433 1434 1435 1437 1439 1440 1443 1445 1448 1449 1451 1453 1455 1456 1458 1459 1461 1464 1468 1472 1476 1482 1487 1490 1495 1499 1503 1508 1512 1517 1520 1524 1527 1530 1533 1535
1411 1415 1419 1422 1425 1428 1430 1433 1435 1437 1438 1439 1440 1442 1443 1445 1448 1452 1454 1456 1458 1460 1461 1464 1467 1471 1474 1478 1482 1488 1492 1497 1501 1505 1509 1513 1517 1521 1524 1528 1530 1533 1534
1409 1413 1417 1421 1424 1427 1430 1432 1435 1437 1439 1441 1442 1443 1444 1447 1449 1453 1457 1459 1461 1463 1465 1466 1468 1471 1474 1478 1482 1487 1492 1496 1500 1505 1510 1514 1517 1520 1523 1525 1527 1528 1530
1408 1411 1416 1419 1423 1425 1429 1432 1434 1437 1439 1442 1444 1445 1446 1447 1451 1454 1458 1461 1464 1466 1467 1469 1471 1473 1476 1479 1482 1486 1490 1496 1501 1506 1510 1513 1516 1518 1520 1522 1523 1525 1526
1406 1410 1414 1417 1421 1424 1427 1431 1434 1437 1439 1441 1444 1446 1447 1449 1452 1455 1458 1461 1463 1466 1469 1471 1473 1475 1477 1480 1483 1487 1492 1497 1500 1504 1507 1510 1512 1514 1516 1517 1519 1520 1522
1404 1407 1412 1415 1419 1422 1425 1429 1433 1436 1439 1441 1443 1446 1448 1450 1453 1456 1458 1459 1462 1464 1467 1470 1473 1475 1478 1481 1485 1489 1492 1495 1497 1500 1502 1505 1508 1510 1511 1514 1515 1516 1518
1399 1404 1408 1412 1416 1420 1422 1426 1430 1433 1436 1438 1441 1444 1446 1449 1451 1453 1455 1458 1460 1463 1465 1468 1471 1474 1477 1480 1484 1486 1489 1492 1494 1497 1499 1502 1504 1506 1507 1508 1510 1511 1511
1397 1399 1404 1408 1412 1416 1419 1422 1427 1430 1433 1435 1438 1441 1443 1445 1448 1450 1453 1455 1457 1460 1463 1466 1468 1470 1473 1476 1479 1482 1484 1487 1489 1492 1494 1496 1498 1499 1501 1501 1502 1502 1503
1393 1396 1399 1403 1408 1411 1415 1419 1422 1426 1428 1431 1434 1437 1439 1441 1443 1446 1449 1451 1453 1456 1459 1462 1465 1467 1469 1472 1474 1477 1479 1482 1484 1487 1488 1490 1491 1492 1494 1495 1495 1496 1496
1390 1394 1398 1400 1403 1407 1410 1414 1417 1420 1423 1426 1429 1432 1434 1436 1437 1440 1442 1445 1448 1450 1453 1456 1459 1461 1464 1466 1468 1470 1472 1473 1476 1480 1482 1483 1484 1485 1486 1486 1487 1487 1487
1388 1391 1395 1396 1399 1402 1406 1409 1412 1415 1418 1420 1423 1425 1428 1430 1431 1433 1436 1439 1441 1443 1446 1448 1450 1452 1455 1457 1460 1462 1464 1466 1469 1472 1474 1475 1476 1477 1478 1478 1478 1479 1479
1383 1385 1389 1391 1395 1399 1401 1405 1408 1411 1412 1414 1416 1417 1420 1424 1425 1427 1430 1432 1434 1436 1438 1440 1441 1443 1445 1448 1450 1452 1455 1458 1460 1462 1465 1466 1467 1468 1468 1469 1469 1469 1469
1381 1383 1384 1386 1389 1393 1396 1398 1401 1403 1406 1407 1408 1410 1411 1414 1417 1419 1422 1424 1426 1428 1430 1432 1433 1435 1436 1437 1439 1442 1444 1447 1450 1453 1456 1457 1457 1457 1457 1458 1459 1459 1459